• In Hungary
  • List of Countries
  • For 7 days
  • Water Temperature
  • Satellite Maps
  • Weather Map
  • News
  • Weather Widgets
  • user-avatar
    Login

    Hourly Weather Setuha

    Today, 20 June, Wednesday

    Time Temperature Precipitation Wind Pressure Humidity
    00:00 +18°C° 0 mm 3 mps 738 mmHg 92%
    01:00 +18°C° 0 mm 3 mps 738 mmHg 93%
    02:00 +17°C° 0 mm 3 mps 738 mmHg 93%
    03:00 +18°C° 0 mm 4 mps 738 mmHg 93%
    04:00 +18°C° 0 mm 4 mps 738 mmHg 93%
    05:00 +18°C° 0 mm 4 mps 738 mmHg 93%
    06:00 +19°C° 0 mm 4 mps 738 mmHg 88%
    07:00 +20°C° 0 mm 5 mps 738 mmHg 83%
    08:00 +21°C° 0 mm 5 mps 738 mmHg 78%
    09:00 +21°C° 0 mm 5 mps 739 mmHg 74%
    10:00 +22°C° 0 mm 6 mps 739 mmHg 71%
    11:00 +22°C° 0 mm 6 mps 739 mmHg 67%
    12:00 +22°C° 0 mm 6 mps 739 mmHg 65%
    13:00 +23°C° 0 mm 6 mps 739 mmHg 63%
    14:00 +23°C° 0 mm 6 mps 739 mmHg 61%
    15:00 +22°C° 0 mm 6 mps 739 mmHg 64%
    16:00 +22°C° 0 mm 5 mps 739 mmHg 67%
    17:00 +22°C° 0 mm 4 mps 739 mmHg 69%
    18:00 +20°C° 0 mm 4 mps 739 mmHg 73%
    19:00 +19°C° 0 mm 4 mps 739 mmHg 76%
    20:00 +17°C° 0 mm 3 mps 739 mmHg 80%
    21:00 +16°C° 0 mm 3 mps 739 mmHg 82%
    22:00 +14°C° 0 mm 3 mps 740 mmHg 85%
    23:00 +14°C° 0 mm 3 mps 740 mmHg 87%

    Tomorrow, 21 June, Thursday

    Time Temperature Precipitation Wind Pressure Humidity
    00:00 +13°C° 0 mm 3 mps 740 mmHg 89%
    01:00 +13°C° 0 mm 3 mps 740 mmHg 91%
    02:00 +12°C° 0 mm 3 mps 740 mmHg 93%
    03:00 +12°C° 0 mm 3 mps 740 mmHg 91%
    04:00 +13°C° 0 mm 3 mps 740 mmHg 89%
    05:00 +13°C° 0 mm 3 mps 741 mmHg 88%
    06:00 +16°C° 0 mm 3 mps 741 mmHg 82%
    07:00 +17°C° 0 mm 3 mps 741 mmHg 76%
    08:00 +19°C° 0 mm 4 mps 741 mmHg 70%
    09:00 +20°C° 0 mm 4 mps 741 mmHg 67%
    10:00 +21°C° 0 mm 4 mps 741 mmHg 64%
    11:00 +22°C° 0 mm 4 mps 741 mmHg 61%
    12:00 +23°C° 0 mm 4 mps 740 mmHg 61%
    13:00 +23°C° 0 mm 4 mps 740 mmHg 61%
    14:00 +25°C° 0 mm 4 mps 740 mmHg 61%
    15:00 +25°C° 0 mm 3 mps 740 mmHg 63%
    16:00 +25°C° 0 mm 3 mps 739 mmHg 66%
    17:00 +25°C° 0 mm 3 mps 739 mmHg 68%
    18:00 +23°C° 0 mm 2 mps 739 mmHg 73%
    19:00 +20°C° 0 mm 2 mps 739 mmHg 78%
    20:00 +19°C° 0 mm 2 mps 739 mmHg 83%
    21:00 +18°C° 0 mm 2 mps 739 mmHg 85%
    22:00 +17°C° 0 mm 2 mps 739 mmHg 87%
    23:00 +16°C° 0 mm 2 mps 739 mmHg 90%

    Day after tomorrow, 22 June, Friday

    Time Temperature Precipitation Wind Pressure Humidity
    00:00 +16°C° 0 mm 2 mps 739 mmHg 90%
    01:00 +16°C° 0 mm 2 mps 739 mmHg 91%
    02:00 +16°C° 0 mm 2 mps 738 mmHg 92%
    03:00 +16°C° 0 mm 3 mps 738 mmHg 91%
    04:00 +16°C° 0 mm 3 mps 738 mmHg 90%
    05:00 +17°C° 0 mm 3 mps 738 mmHg 90%
    06:00 +19°C° 0 mm 4 mps 738 mmHg 85%
    07:00 +21°C° 0 mm 4 mps 737 mmHg 80%
    08:00 +22°C° 0 mm 5 mps 737 mmHg 75%
    09:00 +23°C° 0 mm 5 mps 737 mmHg 72%
    10:00 +24°C° 0 mm 6 mps 737 mmHg 69%
    11:00 +27°C° 0 mm 6 mps 737 mmHg 65%
    12:00 +27°C° 0 mm 6 mps 736 mmHg 65%
    13:00 +27°C° 0 mm 6 mps 736 mmHg 64%
    14:00 +28°C° 0 mm 6 mps 735 mmHg 63%
    15:00 +27°C° 0 mm 6 mps 735 mmHg 66%
    16:00 +27°C° 0 mm 5 mps 735 mmHg 70%
    17:00 +27°C° 0 mm 4 mps 735 mmHg 73%
    18:00 +25°C° 0.1 mm 4 mps 735 mmHg 78%
    19:00 +23°C° 0.1 mm 4 mps 735 mmHg 83%
    20:00 +21°C° 0.1 mm 3 mps 735 mmHg 88%
    21:00 +20°C° 0.1 mm 3 mps 735 mmHg 89%
    22:00 +19°C° 0.1 mm 3 mps 735 mmHg 91%
    23:00 +19°C° 0.1 mm 2 mps 735 mmHg 93%

    23 June, Saturday

    Time Temperature Precipitation Wind Pressure Humidity
    00:00 +18°C° 0.2 mm 2 mps 735 mmHg 94%
    01:00 +17°C° 0.2 mm 2 mps 735 mmHg 94%
    02:00 +17°C° 0.2 mm 2 mps 735 mmHg 95%
    03:00 +17°C° 0.3 mm 2 mps 735 mmHg 95%
    04:00 +17°C° 0.3 mm 2 mps 735 mmHg 94%
    05:00 +17°C° 0.3 mm 2 mps 735 mmHg 94%
    06:00 +18°C° 0.7 mm 2 mps 735 mmHg 92%
    07:00 +18°C° 0.7 mm 3 mps 735 mmHg 90%
    08:00 +19°C° 0.7 mm 3 mps 735 mmHg 88%
    09:00 +19°C° 0.4 mm 2 mps 734 mmHg 88%
    10:00 +19°C° 0.4 mm 2 mps 734 mmHg 89%
    11:00 +19°C° 0.4 mm 2 mps 734 mmHg 89%
    12:00 +20°C° 0.1 mm 3 mps 733 mmHg 85%
    13:00 +21°C° 0.1 mm 3 mps 733 mmHg 81%
    14:00 +23°C° 0.1 mm 4 mps 733 mmHg 77%
    15:00 +22°C° 1.5 mm 4 mps 733 mmHg 81%
    16:00 +21°C° 1.5 mm 4 mps 732 mmHg 85%
    17:00 +19°C° 1.5 mm 4 mps 732 mmHg 88%
    18:00 +18°C° 1.9 mm 4 mps 732 mmHg 90%
    19:00 +16°C° 1.9 mm 5 mps 732 mmHg 92%
    20:00 +14°C° 1.9 mm 5 mps 732 mmHg 94%
    21:00 +13°C° 0.8 mm 5 mps 732 mmHg 94%
    22:00 +12°C° 0.8 mm 5 mps 732 mmHg 94%
    23:00 +10°C° 0.8 mm 6 mps 732 mmHg 95%

    24 June, Sunday

    Time Temperature Precipitation Wind Pressure Humidity
    00:00 +9°C° 0.1 mm 6 mps 733 mmHg 94%
    01:00 +9°C° 0.1 mm 6 mps 733 mmHg 94%
    02:00 +9°C° 0.1 mm 6 mps 734 mmHg 93%
    03:00 +9°C° 0 mm 5 mps 734 mmHg 93%
    04:00 +9°C° 0 mm 5 mps 735 mmHg 92%
    05:00 +9°C° 0 mm 5 mps 735 mmHg 92%
    06:00 +10°C° 0 mm 5 mps 736 mmHg 87%
    07:00 +13°C° 0 mm 5 mps 736 mmHg 83%
    08:00 +15°C° 0 mm 4 mps 737 mmHg 79%
    09:00 +16°C° 0 mm 5 mps 737 mmHg 73%
    10:00 +17°C° 0 mm 5 mps 737 mmHg 68%
    11:00 +19°C° 0 mm 6 mps 738 mmHg 63%
    12:00 +20°C° 0 mm 6 mps 738 mmHg 63%
    13:00 +20°C° 0 mm 6 mps 738 mmHg 62%
    14:00 +20°C° 0 mm 6 mps 738 mmHg 62%
    15:00 +20°C° 0.1 mm 5 mps 739 mmHg 65%
    16:00 +20°C° 0.1 mm 5 mps 739 mmHg 69%
    17:00 +19°C° 0.1 mm 5 mps 739 mmHg 72%
    18:00 +18°C° 0 mm 4 mps 739 mmHg 77%
    19:00 +16°C° 0 mm 3 mps 740 mmHg 83%
    20:00 +14°C° 0 mm 3 mps 740 mmHg 88%
    21:00 +13°C° 0 mm 3 mps 740 mmHg 90%
    22:00 +12°C° 0 mm 3 mps 740 mmHg 92%
    23:00 +11°C° 0 mm 3 mps 740 mmHg 93%

    25 June, Monday

    Time Temperature Precipitation Wind Pressure Humidity
    00:00 +11°C° 0 mm 3 mps 741 mmHg 94%
    01:00 +11°C° 0 mm 3 mps 741 mmHg 94%
    02:00 +10°C° 0 mm 2 mps 741 mmHg 94%
    03:00 +12°C° 0 mm 2 mps 741 mmHg 93%
    04:00 +12°C° 0 mm 2 mps 741 mmHg 92%
    05:00 +12°C° 0 mm 2 mps 742 mmHg 91%
    06:00 +13°C° 0 mm 3 mps 742 mmHg 85%
    07:00 +16°C° 0 mm 3 mps 742 mmHg 78%
    08:00 +17°C° 0 mm 3 mps 742 mmHg 72%
    09:00 +18°C° 0 mm 3 mps 742 mmHg 68%
    10:00 +19°C° 0 mm 3 mps 742 mmHg 65%
    11:00 +20°C° 0 mm 4 mps 742 mmHg 61%
    12:00 +20°C° 0.2 mm 4 mps 742 mmHg 62%
    13:00 +20°C° 0.2 mm 4 mps 742 mmHg 64%
    14:00 +20°C° 0.2 mm 4 mps 741 mmHg 65%
    15:00 +20°C° 0.3 mm 4 mps 741 mmHg 68%
    16:00 +20°C° 0.3 mm 4 mps 741 mmHg 70%
    17:00 +20°C° 0.3 mm 4 mps 741 mmHg 73%
    18:00 +18°C° 0.2 mm 3 mps 741 mmHg 78%
    19:00 +17°C° 0.2 mm 3 mps 741 mmHg 83%
    20:00 +15°C° 0.2 mm 2 mps 741 mmHg 89%
    21:00 +15°C° 0.2 mm 2 mps 741 mmHg 90%
    22:00 +14°C° 0.2 mm 2 mps 741 mmHg 91%
    23:00 +13°C° 0.2 mm 2 mps 741 mmHg 93%
    Show more